Terminal Aerodrome Forecast
Issued by NWS

Home | Current Version | Previous Version | Text Only | Print | Product List | Glossary On
Versions: 1 2 3 4 5 6 7 8 9 10 11 12 13 14 15 16 17 18 19 20 21 22 23 24 25 26 27 28 29 30 31 32 33 34 35 36 37 38 39 40 41 42 43 44 45 46 47 48
000
FTUS46 KOTX 170534
TAFSFF
TAF
KSFF 170534Z 1706/1806 VRB03KT P6SM SCT003 BKN070 OVC090
     FM170900 21002KT 4SM BR OVC003
     FM171500 19002KT 4SM BR OVC007
     FM171900 20002KT 6SM BR OVC012
     FM172200 12003KT 6SM -FZRA SCT015 OVC025=

USA.gov is the U.S. government's official web portal to all federal, state and local government web resources and services.